QPF
0.05 0.04 0.06 0.05 0.06 0.05 0.05 0.06 0.08 0.07 0.07 0.08 0.08 0.07 0.06 0.04 0.04 0.04 0.03 0.02 0.02 0.01 0.01 0.02 0.03 0.03 0.05 0.06 0.08 0.09 0.08 0.10 0.10 0.10 0.10 0.08 0.06 0.06 0.07 0.08 0.10 0.11 0.10
0.02 0.03 0.03 0.03 0.04 0.04 0.04 0.05 0.05 0.05 0.05 0.05 0.06 0.04 0.03 0.03 0.04 0.04 0.03 0.03 0.03 0.02 0.01 0.02 0.02 0.02 0.04 0.04 0.05 0.06 0.07 0.07 0.06 0.06 0.07 0.08 0.09 0.09 0.08 0.09 0.09 0.11 0.15
0.01 0.02 0.02 0.02 0.02 0.03 0.04 0.03 0.03 0.03 0.03 0.03 0.02 0.02 0.02 0.03 0.04 0.04 0.04 0.03 0.02 0.02 0.03 0.02 0.02 0.03 0.03 0.03 0.03 0.03 0.04 0.05 0.04 0.03 0.04 0.06 0.08 0.10 0.09 0.06 0.07 0.08 0.12
0.00 0.01 0.01 0.01 0.01 0.01 0.02 0.03 0.03 0.02 0.02 0.03 0.03 0.03 0.03 0.05 0.04 0.03 0.03 0.02 0.01 0.01 0.02 0.02 0.02 0.02 0.02 0.02 0.01 0.02 0.02 0.03 0.04 0.03 0.03 0.03 0.04 0.06 0.07 0.06 0.06 0.05 0.06
0.00 0.01 0.01 0.01 0.01 0.01 0.01 0.02 0.02 0.02 0.02 0.02 0.02 0.03 0.03 0.03 0.02 0.02 0.02 0.02 0.01 0.01 0.01 0.01 0.01 0.01 0.01 0.01 0.01 0.01 0.02 0.02 0.03 0.03 0.03 0.03 0.03 0.03 0.04 0.05 0.05 0.04 0.03
0.00 0.01 0.01 0.01 0.01 0.01 0.01 0.02 0.02 0.02 0.02 0.01 0.01 0.02 0.02 0.02 0.02 0.02 0.02 0.01 0.01 0.01 0.00 0.01 0.01 0.01 0.01 0.01 0.01 0.01 0.01 0.02 0.02 0.02 0.02 0.03 0.03 0.03 0.03 0.04 0.05 0.05 0.04
0.00 0.01 0.00 0.00 0.00 0.01 0.02 0.02 0.02 0.02 0.01 0.01 0.01 0.01 0.01 0.01 0.01 0.01 0.01 0.01 0.00 0.01 0.01 0.01 0.01 0.01 0.01 0.00 0.01 0.01 0.01 0.01 0.01 0.02 0.02 0.02 0.02 0.02 0.02 0.03 0.03 0.04 0.03
0.00 0.00 0.00 0.00 0.00 0.00 0.01 0.02 0.02 0.02 0.01 0.01 0.01 0.01 0.01 0.01 0.01 0.00 0.00 0.00 0.00 0.00 0.00 0.00 0.00 0.00 0.00 0.00 0.00 0.01 0.01 0.01 0.01 0.01 0.02 0.02 0.02 0.02 0.02 0.02 0.03 0.03 0.03
0.00 0.00 0.00 0.00 0.00 0.00 0.00 0.01 0.01 0.01 0.00 0.00 0.00 0.01 0.01 0.00 0.00 0.00 0.00 0.00 0.00 0.00 0.00 0.00 0.00 0.00 0.00 0.00 0.01 0.01 0.00 0.00 0.00 0.01 0.01 0.02 0.02 0.02 0.01 0.02 0.02 0.02 0.03
0.00 0.00 0.00 0.00 0.00 0.00 0.00 0.00 0.01 0.01 0.00 0.00 0.00 0.00 0.00 0.00 0.00 0.00 0.00 0.00 0.00 0.00 0.00 0.00 0.00 0.00 0.00 0.00 0.00 0.01 0.00 0.00 0.00 0.00 0.00 0.01 0.01 0.01 0.01 0.01 0.01 0.01 0.02
0.00 0.00 0.00 0.00 0.00 0.00 0.00 0.00 0.00 0.00 0.00 0.00 0.00 0.00 0.00 0.00 0.00 0.00 0.00 0.00 0.00 0.00 0.00 0.00 0.00 0.00 0.00 0.00 0.00 0.00 0.00 0.00 0.01 0.00 0.00 0.00 0.00 0.00 0.00 0.00 0.00 0.01 0.01
0.00 0.00 0.00 0.00 0.00 0.00 0.00 0.00 0.00 0.00 0.00 0.00 0.00 0.00 0.00 0.00 0.00 0.01 0.00 0.00 0.00 0.00 0.00 0.00 0.00 0.00 0.00 0.00 0.00 0.00 0.00 0.00 0.01 0.01 0.01 0.01 0.01 0.01 0.01 0.00 0.00 0.01 0.01
0.00 0.00 0.00 0.00 0.00 0.00 0.00 0.00 0.00 0.00 0.00 0.00 0.00 0.00 0.00 0.00 0.01 0.00 0.00 0.00 0.00 0.00 0.00 0.00 0.00 0.00 0.00 0.00 0.00 0.00 0.00 0.00 0.00 0.00 0.00 0.00 0.01 0.01 0.01 0.01 0.01 0.00 0.00
0.00 0.00 0.00 0.00 0.00 0.00 0.00 0.00 0.00 0.00 0.00 0.00 0.00 0.00 0.00 0.00 0.00 0.00 0.00 0.00 0.00 0.00 0.00 0.00 0.00 0.00 0.00 0.00 0.00 0.00 0.00 0.00 0.00 0.00 0.00 0.00 0.01 0.01 0.01 0.01 0.01 0.01 0.01
0.00 0.00 0.00 0.00 0.00 0.00 0.00 0.00 0.00 0.00 0.00 0.00 0.00 0.00 0.00 0.00 0.00 0.00 0.00 0.00 0.00 0.00 0.00 0.00 0.00 0.00 0.00 0.00 0.00 0.00 0.00 0.00 0.00 0.00 0.01 0.01 0.00 0.00 0.00 0.00 0.01 0.01 0.01
0.01 0.00 0.00 0.00 0.00 0.00 0.00 0.00 0.00 0.00 0.00 0.00 0.00 0.00 0.00 0.00 0.00 0.00 0.00 0.00 0.00 0.00 0.00 0.00 0.00 0.00 0.00 0.00 0.00 0.00 0.00 0.00 0.00 0.00 0.01 0.01 0.00 0.00 0.00 0.00 0.00 0.00 0.00
0.00 0.00 0.00 0.00 0.00 0.00 0.00 0.00 0.00 0.00 0.00 0.00 0.00 0.00 0.00 0.00 0.00 0.00 0.00 0.01 0.00 0.01 0.01 0.00 0.00 0.00 0.00 0.00 0.00 0.00 0.00 0.00 0.00 0.00 0.01 0.00 0.00 0.00 0.01 0.01 0.00 0.00 0.00
0.00 0.00 0.00 0.00 0.00 0.00 0.00 0.00 0.00 0.00 0.00 0.00 0.00 0.00 0.00 0.00 0.00 0.00 0.00 0.01 0.00 0.01 0.01 0.01 0.01 0.01 0.00 0.00 0.00 0.00 0.00 0.00 0.00 0.00 0.00 0.01 0.00 0.01 0.01 0.01 0.01 0.01 0.02
0.00 0.00 0.00 0.00 0.00 0.00 0.00 0.00 0.00 0.00 0.00 0.00 0.00 0.00 0.00 0.00 0.00 0.00 0.00 0.01 0.01 0.01 0.01 0.01 0.00 0.01 0.01 0.00 0.00 0.00 0.00 0.00 0.00 0.00 0.00 0.01 0.01 0.00 0.00 0.00 0.01 0.01 0.02
0.00 0.00 0.00 0.00 0.00 0.00 0.00 0.00 0.00 0.00 0.00 0.00 0.00 0.00 0.01 0.00 0.00 0.00 0.00 0.01 0.01 0.00 0.00 0.00 0.01 0.01 0.01 0.01 0.00 0.00 0.00 0.00 0.00 0.00 0.00 0.00 0.00 0.00 0.00 0.00 0.01 0.01 0.01
0.00 0.00 0.00 0.00 0.00 0.00 0.00 0.01 0.01 0.01 0.01 0.01 0.01 0.01 0.01 0.01 0.01 0.01 0.01 0.01 0.01 0.01 0.01 0.01 0.01 0.01 0.01 0.01 0.00 0.00 0.00 0.00 0.00 0.00 0.00 0.00 0.00 0.00 0.00 0.00 0.00 0.01 0.01
0.00 0.00 0.00 0.00 0.00 0.01 0.02 0.02 0.02 0.03 0.03 0.02 0.02 0.01 0.02 0.01 0.00 0.01 0.01 0.00 0.00 0.01 0.01 0.02 0.02 0.01 0.02 0.01 0.00 0.00 0.00 0.00 0.00 0.00 0.00 0.00 0.00 0.00 0.00 0.00 0.00 0.00 0.00
0.00 0.00 0.00 0.00 0.00 0.00 0.01 0.01 0.02 0.02 0.02 0.02 0.02 0.02 0.03 0.03 0.01 0.01 0.01 0.01 0.01 0.01 0.01 0.02 0.02 0.01 0.01 0.02 0.00 0.00 0.00 0.00 0.00 0.00 0.00 0.00 0.00 0.00 0.00 0.00 0.00 0.00 0.00
0.00 0.00 0.00 0.00 0.00 0.00 0.00 0.00 0.01 0.02 0.02 0.02 0.02 0.01 0.02 0.02 0.02 0.01 0.01 0.01 0.01 0.01 0.01 0.01 0.01 0.00 0.01 0.01 0.01 0.01 0.01 0.01 0.00 0.00 0.00 0.00 0.00 0.00 0.00 0.00 0.01 0.00 0.01
0.00 0.00 0.00 0.00 0.00 0.00 0.00 0.00 0.00 0.01 0.01 0.01 0.02 0.01 0.01 0.01 0.02 0.01 0.01 0.01 0.01 0.01 0.01 0.01 0.01 0.01 0.01 0.01 0.01 0.02 0.01 0.01 0.01 0.01 0.01 0.01 0.01 0.01 0.01 0.02 0.02 0.03 0.03
0.00 0.00 0.00 0.01 0.01 0.00 0.00 0.01 0.01 0.01 0.02 0.02 0.02 0.02 0.02 0.03 0.02 0.02 0.02 0.02 0.01 0.02 0.02 0.01 0.01 0.01 0.01 0.01 0.01 0.00 0.00 0.00 0.00 0.00 0.00 0.00 0.01 0.01 0.02 0.02 0.03 0.04 0.04
MSLP
1012.61 1012.99 1013.28 1013.49 1013.64 1013.76 1013.90 1014.10 1014.37 1014.71 1015.09 1015.47 1015.81 1016.09 1016.28 1016.39 1016.44 1016.46 1016.49 1016.56 1016.70 1016.91 1017.16 1017.44 1017.71 1017.94 1018.11 1018.22 1018.26 1018.27 1018.26 1018.26 1018.28 1018.33 1018.38 1018.43 1018.45 1018.43 1018.35 1018.23 1018.10 1017.98 1017.92
1012.70 1013.13 1013.45 1013.65 1013.77 1013.84 1013.93 1014.08 1014.32 1014.64 1015.03 1015.45 1015.83 1016.13 1016.35 1016.46 1016.50 1016.51 1016.52 1016.59 1016.75 1016.98 1017.28 1017.61 1017.93 1018.21 1018.41 1018.53 1018.57 1018.55 1018.51 1018.48 1018.47 1018.48 1018.52 1018.54 1018.55 1018.51 1018.41 1018.26 1018.09 1017.93 1017.83
1012.67 1013.19 1013.58 1013.82 1013.94 1014.00 1014.05 1014.16 1014.37 1014.67 1015.06 1015.48 1015.87 1016.20 1016.42 1016.54 1016.58 1016.58 1016.60 1016.67 1016.83 1017.09 1017.42 1017.80 1018.16 1018.47 1018.70 1018.83 1018.86 1018.83 1018.77 1018.71 1018.67 1018.67 1018.69 1018.72 1018.72 1018.68 1018.57 1018.41 1018.22 1018.02 1017.87
1012.43 1013.07 1013.56 1013.88 1014.06 1014.14 1014.20 1014.29 1014.48 1014.77 1015.14 1015.55 1015.94 1016.27 1016.51 1016.63 1016.68 1016.69 1016.70 1016.79 1016.96 1017.23 1017.59 1017.99 1018.38 1018.71 1018.94 1019.08 1019.11 1019.07 1019.00 1018.93 1018.88 1018.88 1018.91 1018.95 1018.97 1018.94 1018.85 1018.68 1018.47 1018.24 1018.04
1011.90 1012.68 1013.31 1013.76 1014.03 1014.18 1014.28 1014.39 1014.58 1014.86 1015.22 1015.62 1016.01 1016.35 1016.59 1016.73 1016.79 1016.81 1016.83 1016.92 1017.10 1017.37 1017.73 1018.13 1018.53 1018.86 1019.10 1019.24 1019.27 1019.24 1019.17 1019.11 1019.08 1019.10 1019.15 1019.22 1019.27 1019.27 1019.19 1019.03 1018.81 1018.56 1018.31
1011.11 1012.02 1012.79 1013.38 1013.78 1014.04 1014.21 1014.38 1014.59 1014.88 1015.24 1015.65 1016.04 1016.39 1016.65 1016.81 1016.89 1016.92 1016.96 1017.05 1017.22 1017.49 1017.83 1018.21 1018.59 1018.91 1019.15 1019.28 1019.33 1019.31 1019.26 1019.23 1019.23 1019.28 1019.37 1019.47 1019.56 1019.59 1019.54 1019.40 1019.18 1018.91 1018.62
1010.13 1011.14 1012.04 1012.76 1013.30 1013.68 1013.95 1014.20 1014.46 1014.78 1015.17 1015.59 1016.01 1016.38 1016.67 1016.86 1016.97 1017.02 1017.07 1017.16 1017.32 1017.56 1017.86 1018.21 1018.55 1018.85 1019.07 1019.21 1019.27 1019.28 1019.26 1019.26 1019.30 1019.39 1019.51 1019.66 1019.78 1019.84 1019.82 1019.70 1019.49 1019.22 1018.91
1009.09 1010.16 1011.14 1011.97 1012.63 1013.13 1013.51 1013.84 1014.18 1014.56 1014.99 1015.45 1015.91 1016.31 1016.64 1016.87 1017.01 1017.09 1017.16 1017.24 1017.38 1017.58 1017.84 1018.14 1018.43 1018.70 1018.90 1019.04 1019.12 1019.15 1019.17 1019.21 1019.28 1019.41 1019.56 1019.73 1019.88 1019.97 1019.97 1019.88 1019.70 1019.43 1019.12
1008.14 1009.21 1010.23 1011.12 1011.86 1012.45 1012.93 1013.36 1013.78 1014.23 1014.72 1015.24 1015.74 1016.19 1016.57 1016.84 1017.02 1017.14 1017.21 1017.29 1017.40 1017.57 1017.78 1018.02 1018.27 1018.50 1018.68 1018.82 1018.91 1018.96 1019.01 1019.08 1019.19 1019.33 1019.50 1019.68 1019.84 1019.95 1019.97 1019.91 1019.75 1019.52 1019.23
1007.39 1008.41 1009.41 1010.32 1011.10 1011.75 1012.31 1012.82 1013.32 1013.85 1014.40 1014.97 1015.53 1016.04 1016.46 1016.79 1017.01 1017.15 1017.24 1017.32 1017.41 1017.54 1017.70 1017.90 1018.10 1018.30 1018.46 1018.59 1018.69 1018.76 1018.83 1018.92 1019.03 1019.18 1019.35 1019.52 1019.67 1019.78 1019.82 1019.78 1019.67 1019.48 1019.25
1006.88 1007.81 1008.75 1009.63 1010.41 1011.10 1011.71 1012.28 1012.85 1013.45 1014.07 1014.70 1015.31 1015.87 1016.34 1016.71 1016.97 1017.14 1017.25 1017.33 1017.41 1017.51 1017.64 1017.80 1017.97 1018.13 1018.28 1018.41 1018.51 1018.59 1018.67 1018.75 1018.86 1018.98 1019.12 1019.26 1019.39 1019.49 1019.54 1019.53 1019.46 1019.33 1019.17
1006.54 1007.38 1008.25 1009.07 1009.83 1010.52 1011.16 1011.78 1012.41 1013.07 1013.75 1014.43 1015.08 1015.68 1016.19 1016.60 1016.89 1017.09 1017.22 1017.31 1017.39 1017.48 1017.59 1017.73 1017.87 1018.02 1018.16 1018.28 1018.38 1018.45 1018.53 1018.60 1018.67 1018.76 1018.86 1018.96 1019.06 1019.13 1019.18 1019.19 1019.17 1019.11 1019.02
1006.28 1007.03 1007.82 1008.58 1009.31 1010.00 1010.66 1011.32 1012.00 1012.71 1013.43 1014.15 1014.84 1015.47 1016.01 1016.44 1016.76 1016.99 1017.14 1017.25 1017.34 1017.44 1017.54 1017.67 1017.81 1017.95 1018.07 1018.19 1018.28 1018.35 1018.40 1018.45 1018.49 1018.53 1018.59 1018.64 1018.70 1018.75 1018.79 1018.83 1018.85 1018.85 1018.84
1005.93 1006.63 1007.36 1008.09 1008.80 1009.49 1010.17 1010.87 1011.59 1012.34 1013.09 1013.85 1014.56 1015.20 1015.76 1016.21 1016.55 1016.81 1016.99 1017.12 1017.24 1017.35 1017.46 1017.59 1017.73 1017.87 1017.99 1018.10 1018.18 1018.23 1018.26 1018.28 1018.29 1018.29 1018.30 1018.31 1018.33 1018.36 1018.40 1018.45 1018.50 1018.56 1018.60
1005.39 1006.07 1006.78 1007.50 1008.21 1008.92 1009.64 1010.38 1011.15 1011.93 1012.72 1013.49 1014.22 1014.87 1015.44 1015.90 1016.26 1016.54 1016.74 1016.91 1017.05 1017.18 1017.32 1017.47 1017.61 1017.74 1017.86 1017.96 1018.02 1018.06 1018.07 1018.06 1018.04 1018.01 1017.99 1017.97 1017.97 1017.98 1018.02 1018.08 1018.15 1018.24 1018.32
1004.62 1005.32 1006.05 1006.79 1007.53 1008.28 1009.05 1009.85 1010.66 1011.48 1012.30 1013.09 1013.82 1014.48 1015.04 1015.51 1015.89 1016.18 1016.41 1016.61 1016.78 1016.94 1017.10 1017.25 1017.40 1017.53 1017.64 1017.73 1017.77 1017.79 1017.78 1017.75 1017.71 1017.67 1017.63 1017.60 1017.59 1017.60 1017.64 1017.70 1017.78 1017.87 1017.97
1003.68 1004.42 1005.19 1005.98 1006.78 1007.59 1008.42 1009.27 1010.13 1010.99 1011.84 1012.64 1013.38 1014.04 1014.60 1015.07 1015.45 1015.76 1016.02 1016.23 1016.43 1016.61 1016.78 1016.95 1017.09 1017.22 1017.31 1017.38 1017.41 1017.41 1017.38 1017.34 1017.30 1017.25 1017.21 1017.19 1017.18 1017.20 1017.23 1017.29 1017.36 1017.45 1017.53
1002.69 1003.49 1004.32 1005.17 1006.03 1006.90 1007.79 1008.70 1009.61 1010.51 1011.37 1012.19 1012.93 1013.59 1014.15 1014.62 1015.00 1015.32 1015.58 1015.81 1016.02 1016.21 1016.39 1016.55 1016.68 1016.79 1016.87 1016.91 1016.92 1016.91 1016.88 1016.83 1016.79 1016.76 1016.73 1016.73 1016.73 1016.76 1016.80 1016.84 1016.90 1016.95 1017.00
1001.84 1002.69 1003.57 1004.47 1005.39 1006.32 1007.26 1008.21 1009.15 1010.08 1010.96 1011.78 1012.52 1013.17 1013.73 1014.19 1014.57 1014.88 1015.14 1015.37 1015.58 1015.76 1015.93 1016.08 1016.20 1016.28 1016.34 1016.36 1016.35 1016.33 1016.29 1016.25 1016.22 1016.20 1016.20 1016.21 1016.24 1016.27 1016.31 1016.34 1016.37 1016.38 1016.38
1001.26 1002.15 1003.07 1004.00 1004.95 1005.91 1006.87 1007.85 1008.81 1009.74 1010.63 1011.45 1012.18 1012.82 1013.36 1013.81 1014.17 1014.47 1014.72 1014.93 1015.12 1015.29 1015.44 1015.56 1015.66 1015.72 1015.75 1015.76 1015.74 1015.70 1015.66 1015.63 1015.61 1015.61 1015.63 1015.66 1015.70 1015.74 1015.77 1015.78 1015.78 1015.74 1015.68
1001.03 1001.93 1002.86 1003.79 1004.74 1005.70 1006.66 1007.63 1008.58 1009.51 1010.38 1011.18 1011.90 1012.52 1013.04 1013.46 1013.80 1014.07 1014.29 1014.48 1014.64 1014.78 1014.90 1015.00 1015.08 1015.13 1015.15 1015.14 1015.12 1015.08 1015.04 1015.02 1015.01 1015.01 1015.04 1015.08 1015.12 1015.15 1015.17 1015.16 1015.11 1015.03 1014.91
1001.12 1002.01 1002.92 1003.83 1004.74 1005.66 1006.59 1007.53 1008.45 1009.34 1010.19 1010.96 1011.65 1012.25 1012.73 1013.12 1013.43 1013.66 1013.84 1013.99 1014.11 1014.22 1014.32 1014.40 1014.47 1014.51 1014.54 1014.54 1014.52 1014.49 1014.46 1014.43 1014.42 1014.42 1014.44 1014.47 1014.50 1014.51 1014.50 1014.46 1014.37 1014.24 1014.07
1001.43 1002.29 1003.15 1004.00 1004.86 1005.72 1006.59 1007.47 1008.34 1009.19 1009.99 1010.73 1011.39 1011.94 1012.39 1012.74 1013.00 1013.19 1013.33 1013.43 1013.52 1013.60 1013.68 1013.76 1013.82 1013.88 1013.92 1013.94 1013.94 1013.92 1013.90 1013.87 1013.85 1013.84 1013.83 1013.83 1013.82 1013.80 1013.75 1013.67 1013.54 1013.38 1013.17
1001.80 1002.62 1003.42 1004.21 1004.99 1005.78 1006.58 1007.39 1008.20 1008.99 1009.75 1010.44 1011.05 1011.57 1011.97 1012.28 1012.49 1012.63 1012.72 1012.78 1012.84 1012.90 1012.97 1013.05 1013.14 1013.22 1013.30 1013.35 1013.38 1013.38 1013.37 1013.33 1013.29 1013.24 1013.19 1013.13 1013.07 1013.00 1012.90 1012.78 1012.61 1012.41 1012.17
1002.08 1002.86 1003.60 1004.33 1005.04 1005.75 1006.48 1007.22 1007.97 1008.71 1009.41 1010.06 1010.63 1011.10 1011.46 1011.72 1011.88 1011.98 1012.02 1012.05 1012.08 1012.12 1012.20 1012.29 1012.41 1012.54 1012.65 1012.75 1012.82 1012.84 1012.83 1012.78 1012.70 1012.61 1012.49 1012.37 1012.24 1012.10 1011.94 1011.77 1011.57 1011.35 1011.09
1002.22 1002.95 1003.65 1004.32 1004.97 1005.62 1006.29 1006.97 1007.66 1008.34 1009.00 1009.60 1010.13 1010.56 1010.87 1011.09 1011.21 1011.26 1011.27 1011.27 1011.27 1011.31 1011.39 1011.51 1011.67 1011.84 1012.00 1012.14 1012.24 1012.28 1012.27 1012.20 1012.08 1011.92 1011.73 1011.53 1011.32 1011.11 1010.89 1010.67 1010.44 1010.19 1009.93
Thickness
5745 5744 5742 5739 5735 5732 5731 5729 5728 5727 5727 5726 5725 5723 5723 5724 5723 5722 5722 5721 5720 5720 5720 5719 5718 5718 5716 5715 5715 5715 5714 5714 5715 5712 5712 5716 5719 5720 5720 5720 5720 5720 5720
5742 5741 5739 5737 5734 5731 5729 5728 5726 5726 5725 5724 5724 5723 5723 5722 5721 5719 5719 5718 5717 5716 5717 5715 5715 5714 5713 5712 5712 5711 5709 5710 5711 5708 5705 5704 5707 5712 5717 5716 5716 5716 5716
5743 5741 5739 5737 5735 5731 5729 5728 5726 5725 5724 5724 5724 5723 5721 5719 5717 5716 5715 5715 5714 5713 5712 5712 5711 5710 5710 5708 5708 5707 5705 5703 5706 5707 5702 5696 5694 5700 5707 5710 5711 5712 5712
5749 5744 5740 5737 5735 5732 5730 5727 5725 5723 5723 5723 5722 5720 5717 5714 5714 5714 5713 5712 5711 5710 5709 5708 5708 5707 5706 5704 5704 5702 5702 5701 5699 5701 5702 5700 5698 5693 5693 5700 5704 5707 5707
5754 5747 5744 5740 5738 5736 5731 5727 5724 5722 5722 5722 5720 5719 5717 5716 5715 5713 5710 5710 5709 5709 5708 5706 5705 5704 5702 5700 5700 5699 5698 5697 5695 5695 5695 5696 5696 5695 5690 5688 5693 5698 5702
5759 5753 5750 5745 5741 5738 5733 5728 5724 5721 5722 5721 5719 5717 5716 5714 5713 5710 5708 5708 5708 5708 5706 5705 5703 5701 5699 5698 5696 5695 5694 5693 5692 5691 5691 5690 5689 5688 5688 5685 5686 5688 5694
5763 5756 5751 5746 5742 5738 5734 5730 5725 5722 5722 5720 5719 5717 5716 5714 5712 5710 5709 5709 5707 5705 5703 5703 5700 5699 5697 5696 5694 5693 5691 5690 5689 5687 5687 5687 5687 5687 5686 5682 5681 5682 5686
5768 5761 5755 5750 5745 5741 5737 5732 5727 5724 5722 5720 5718 5717 5716 5715 5713 5711 5711 5709 5708 5705 5703 5701 5699 5697 5696 5695 5692 5691 5690 5688 5686 5685 5684 5683 5684 5684 5682 5679 5677 5674 5677
5771 5766 5761 5755 5749 5745 5740 5735 5729 5726 5724 5721 5719 5717 5716 5715 5713 5711 5711 5709 5706 5704 5702 5700 5698 5696 5694 5692 5690 5689 5687 5685 5684 5683 5682 5680 5680 5680 5680 5678 5675 5669 5665
5775 5770 5765 5759 5754 5749 5744 5739 5733 5728 5726 5723 5720 5718 5716 5715 5713 5711 5709 5707 5705 5703 5700 5699 5697 5695 5692 5691 5688 5687 5685 5683 5681 5680 5678 5676 5676 5675 5675 5674 5672 5670 5665
5779 5774 5769 5764 5758 5753 5747 5741 5735 5730 5727 5724 5722 5719 5717 5715 5712 5710 5709 5706 5704 5701 5699 5697 5695 5693 5691 5689 5687 5685 5684 5681 5679 5677 5676 5673 5672 5670 5668 5668 5667 5666 5664
5785 5779 5773 5767 5761 5755 5750 5743 5738 5733 5729 5726 5723 5720 5717 5715 5712 5710 5708 5705 5703 5700 5698 5696 5694 5692 5690 5688 5685 5683 5682 5679 5676 5674 5672 5670 5669 5666 5664 5662 5661 5660 5660
5786 5781 5775 5768 5763 5758 5753 5747 5741 5736 5732 5728 5723 5720 5718 5715 5712 5710 5707 5705 5702 5700 5698 5696 5693 5691 5689 5687 5685 5682 5680 5677 5675 5672 5669 5667 5665 5662 5660 5658 5656 5655 5656
5787 5781 5775 5770 5765 5760 5755 5749 5744 5739 5734 5729 5725 5721 5718 5715 5712 5710 5707 5704 5702 5699 5697 5695 5693 5691 5689 5686 5684 5681 5678 5675 5673 5670 5668 5665 5662 5659 5656 5654 5652 5651 5649
5785 5781 5775 5770 5766 5761 5756 5751 5746 5741 5737 5730 5726 5721 5719 5715 5712 5709 5706 5704 5701 5700 5697 5694 5692 5690 5688 5685 5682 5678 5677 5673 5670 5668 5666 5663 5661 5657 5654 5651 5648 5645 5642
5784 5782 5777 5771 5766 5761 5756 5752 5746 5742 5737 5731 5726 5723 5719 5715 5711 5708 5705 5702 5700 5698 5695 5693 5690 5688 5687 5682 5678 5675 5672 5670 5667 5665 5663 5661 5659 5656 5652 5649 5645 5641 5637
5787 5783 5778 5773 5768 5764 5759 5752 5747 5742 5736 5730 5727 5723 5718 5714 5710 5708 5704 5701 5698 5696 5693 5691 5688 5685 5682 5678 5675 5671 5668 5666 5664 5662 5660 5659 5658 5655 5651 5647 5642 5639 5635
5789 5785 5781 5775 5770 5766 5760 5754 5748 5741 5735 5729 5726 5722 5718 5714 5710 5706 5703 5700 5697 5694 5691 5688 5686 5684 5680 5676 5672 5668 5664 5663 5662 5660 5658 5655 5653 5650 5647 5643 5641 5638 5636
5794 5788 5784 5778 5771 5765 5759 5752 5745 5739 5733 5729 5725 5722 5718 5713 5709 5704 5701 5698 5695 5691 5689 5687 5684 5681 5678 5674 5669 5665 5663 5661 5661 5660 5658 5655 5652 5647 5643 5639 5636 5635 5634
5795 5790 5785 5779 5770 5764 5758 5749 5743 5737 5733 5730 5726 5723 5718 5712 5708 5704 5700 5697 5693 5690 5687 5685 5683 5681 5677 5673 5668 5663 5661 5660 5659 5658 5657 5654 5651 5646 5641 5636 5633 5630 5629
5792 5788 5782 5775 5768 5762 5754 5745 5740 5736 5734 5731 5725 5721 5716 5711 5707 5703 5699 5695 5691 5687 5685 5683 5682 5679 5677 5672 5667 5662 5659 5658 5656 5655 5654 5653 5648 5643 5637 5633 5630 5628 5625
5786 5782 5776 5770 5765 5759 5751 5742 5737 5736 5732 5727 5721 5717 5713 5709 5706 5700 5695 5692 5688 5684 5681 5679 5677 5677 5675 5672 5667 5662 5657 5655 5652 5650 5650 5648 5642 5638 5633 5629 5627 5624 5620
5779 5776 5769 5762 5758 5754 5747 5739 5735 5733 5728 5722 5716 5712 5709 5704 5702 5696 5691 5687 5684 5681 5679 5677 5675 5674 5675 5673 5668 5661 5656 5651 5647 5647 5645 5640 5635 5632 5629 5626 5624 5619 5615
5770 5767 5762 5754 5749 5747 5743 5737 5733 5729 5722 5716 5711 5707 5703 5699 5696 5693 5690 5686 5683 5680 5677 5675 5674 5674 5672 5669 5664 5658 5652 5646 5641 5639 5638 5636 5632 5629 5627 5625 5622 5618 5616
5762 5759 5753 5748 5743 5740 5736 5732 5728 5723 5715 5710 5705 5702 5698 5695 5691 5689 5687 5685 5683 5680 5676 5673 5671 5668 5664 5660 5657 5652 5648 5644 5639 5634 5632 5631 5630 5628 5627 5625 5624 5621 5618
5753 5749 5746 5742 5738 5734 5729 5727 5723 5717 5710 5704 5700 5697 5695 5692 5689 5685 5683 5682 5679 5676 5673 5669 5665 5663 5658 5654 5649 5645 5640 5635 5629 5625 5626 5626 5625 5624 5624 5622 5621 5619 5615